Starlink 32580

operational
NORAD ID: 62075 Int'l Des: 2024-217 Owner: SPXS Country: US Constellation: starlink
LEOCIRCULAR

Starlink 32580について

説明を読み込み中...

リアルタイム位置

3D地球を読み込み中...

次回通過

高度履歴

Altitude vs Time

uPlot chart will show altitude changes over time

軌道要素

1 62075U 24217U 25257.84589730 .00034397 00000-0 86537-3 0 9999
2 62075 53.1617 279.6803 0000439 241.0968 118.9993 15.39642561 46659
Epoch: Sep 14, 2025 • Age: 28 hours

現在のステータス

高度 452.4 km
速度 7.65 km/s
衛星直下点 47.04°N, 37.39°W
打ち上げ日 Nov 24, 2024
運用期間 0.8 years
タイプ internet

技術仕様

分類 Payload
質量 730.00 kg
乾燥質量 700.00 kg
総質量 730.00 kg
長さ 0.30 m
直径 4.10 m
スパン 29.00 m
形状 Box + pan
製造者 SPXS
バスタイプ Starlink V2M
フェーズステータス In Orbit
所有者/国 SPXS/US

大規模コンステレーション

Loading constellations...